Location: �chenoz-la-M�line
(47.6009°N, 6.1354°E)
Time: 13:58:11
(UTC+00:00)

Cosmos 1980 - Pass Details

Date: 08 December 2021
Orbit: 838 x 848 km, 71.0° (Epoch: 17 January)

Event Time Altitude Azimuth Distance (km) Brightness Sun altitude
Rises 17:53:25 0° 338° (NNW) 3,416 7.0 -20.9°
Reaches altitude 10° 17:57:29 10° 6° (N) 2,479 6.0 -21.5°
Enters shadow 17:58:10 11° 13° (NNE) 2,389 5.8 -21.6°
